Location: Castillon
(43.0896°N, 0.2156°E)
Time: 17:05:20
(UTC+00:00)

Lacrosse 5 - Pass Details

Date: 16 June 2021
Orbit: 715 x 724 km, 57.0° (Epoch: 28 July)

Event Time Altitude Azimuth Distance (km) Brightness Sun altitude
Rises 21:05:19 0° 311° (NW) 3,125 7.1 -12.3°
Reaches altitude 10° 21:07:43 10° 309° (NW) 2,203 5.8 -12.6°
Maximum altitude 21:12:44 67° 227° (SW) 776 2.0 -13.2°
Enters shadow 21:16:11 20° 149° (SSE) 1,613 3.0 -13.6°
